Location: Geelbroek
(52.9503°N, 6.5712°E)
Time: 21:23:19
(UTC+00:00)

Cosmos 540 Rocket - Pass Details

Date: 15 May 2026
Orbit: 735 x 747 km, 74.1° (Epoch: 10 June)

Event Time Altitude Azimuth Distance (km) Brightness Sun altitude
Exits shadow 22:07:45 12° 209° (SSW) 2,110 5.4 -15.8°
Maximum altitude 22:12:29 80° 296° (WNW) 766 3.5 -16.1°
Drops below altitude 10° 22:17:39 10° 24° (NNE) 2,274 6.6 -16.3°
Sets 22:20:02 0° 26° (NNE) 3,201 7.5 -16.4°
